When you browse on this site, cookies collect data to enhance your experience and personalize the content and advertising you see.
Visit our Privacy Policy to learn more. By continuing to use the site, you agree to this use of cookies and data.
  • In Austria
  • List of Countries
  • For 7 days
  • Water Temperature
  • Weather Map
  • News
  • Weather Widgets
  • user-avatar
    Login

    Hourly Weather Zapesoche

    Today, 7 June, Sunday

    Time Temperature Precipitation Wind Pressure Humidity
    00:00 +16°C° 0 mm 1 mps 748 mmHg 89%
    01:00 +16°C° 0 mm 1 mps 748 mmHg 90%
    02:00 +16°C° 0 mm 2 mps 748 mmHg 90%
    03:00 +16°C° 0 mm 2 mps 748 mmHg 91%
    04:00 +16°C° 0 mm 2 mps 748 mmHg 92%
    05:00 +17°C° 0 mm 2 mps 748 mmHg 93%
    06:00 +18°C° 0 mm 2 mps 748 mmHg 89%
    07:00 +20°C° 0 mm 3 mps 748 mmHg 85%
    08:00 +21°C° 0 mm 3 mps 748 mmHg 81%
    09:00 +22°C° 0 mm 3 mps 748 mmHg 77%
    10:00 +25°C° 0 mm 4 mps 748 mmHg 72%
    11:00 +26°C° 0 mm 4 mps 748 mmHg 67%
    12:00 +26°C° 0.4 mm 4 mps 748 mmHg 69%
    13:00 +27°C° 0.4 mm 4 mps 748 mmHg 70%
    14:00 +27°C° 0.4 mm 4 mps 748 mmHg 71%
    15:00 +27°C° 0.1 mm 4 mps 747 mmHg 67%
    16:00 +28°C° 0.1 mm 4 mps 747 mmHg 63%
    17:00 +28°C° 0.1 mm 4 mps 747 mmHg 59%
    18:00 +26°C° 0 mm 4 mps 747 mmHg 66%
    19:00 +24°C° 0 mm 3 mps 747 mmHg 73%
    20:00 +21°C° 0 mm 3 mps 747 mmHg 79%
    21:00 +20°C° 0 mm 3 mps 747 mmHg 83%
    22:00 +19°C° 0 mm 3 mps 747 mmHg 87%
    23:00 +18°C° 0 mm 3 mps 748 mmHg 91%

    Tomorrow, 8 June, Monday

    Time Temperature Precipitation Wind Pressure Humidity
    00:00 +18°C° 0 mm 3 mps 748 mmHg 92%
    01:00 +18°C° 0 mm 3 mps 748 mmHg 94%
    02:00 +17°C° 0 mm 3 mps 748 mmHg 95%
    03:00 +17°C° 0 mm 3 mps 747 mmHg 94%
    04:00 +18°C° 0 mm 3 mps 747 mmHg 93%
    05:00 +18°C° 0 mm 3 mps 747 mmHg 92%
    06:00 +19°C° 0 mm 3 mps 747 mmHg 85%
    07:00 +21°C° 0 mm 3 mps 747 mmHg 78%
    08:00 +23°C° 0 mm 4 mps 748 mmHg 71%
    09:00 +26°C° 0 mm 4 mps 748 mmHg 64%
    10:00 +27°C° 0 mm 4 mps 748 mmHg 58%
    11:00 +29°C° 0 mm 4 mps 748 mmHg 51%
    12:00 +29°C° 0 mm 4 mps 748 mmHg 49%
    13:00 +30°C° 0 mm 4 mps 748 mmHg 47%
    14:00 +30°C° 0 mm 4 mps 748 mmHg 46%
    15:00 +30°C° 0 mm 4 mps 747 mmHg 51%
    16:00 +29°C° 0 mm 4 mps 747 mmHg 56%
    17:00 +28°C° 0 mm 3 mps 747 mmHg 61%
    18:00 +27°C° 0.1 mm 3 mps 747 mmHg 68%
    19:00 +25°C° 0.1 mm 2 mps 747 mmHg 75%
    20:00 +23°C° 0.1 mm 2 mps 747 mmHg 82%
    21:00 +21°C° 0 mm 2 mps 747 mmHg 84%
    22:00 +20°C° 0 mm 2 mps 747 mmHg 87%
    23:00 +19°C° 0 mm 2 mps 748 mmHg 90%

    Day after tomorrow, 9 June, Tuesday

    Time Temperature Precipitation Wind Pressure Humidity
    00:00 +19°C° 0 mm 2 mps 748 mmHg 91%
    01:00 +18°C° 0 mm 2 mps 748 mmHg 91%
    02:00 +18°C° 0 mm 2 mps 748 mmHg 92%
    03:00 +18°C° 0 mm 2 mps 747 mmHg 92%
    04:00 +18°C° 0 mm 2 mps 747 mmHg 92%
    05:00 +18°C° 0 mm 2 mps 747 mmHg 92%
    06:00 +20°C° 0 mm 3 mps 747 mmHg 88%
    07:00 +21°C° 0 mm 3 mps 748 mmHg 83%
    08:00 +24°C° 0 mm 3 mps 748 mmHg 78%
    09:00 +26°C° 0 mm 4 mps 748 mmHg 70%
    10:00 +27°C° 0 mm 4 mps 748 mmHg 61%
    11:00 +29°C° 0 mm 5 mps 748 mmHg 53%
    12:00 +29°C° 0 mm 5 mps 748 mmHg 51%
    13:00 +30°C° 0 mm 5 mps 748 mmHg 49%
    14:00 +30°C° 0 mm 4 mps 748 mmHg 48%
    15:00 +30°C° 0 mm 4 mps 747 mmHg 51%
    16:00 +30°C° 0 mm 4 mps 747 mmHg 54%
    17:00 +29°C° 0 mm 3 mps 747 mmHg 57%
    18:00 +27°C° 0 mm 3 mps 747 mmHg 64%
    19:00 +26°C° 0 mm 2 mps 747 mmHg 71%
    20:00 +24°C° 0 mm 2 mps 747 mmHg 79%
    21:00 +23°C° 0.3 mm 2 mps 747 mmHg 83%
    22:00 +21°C° 0.3 mm 2 mps 748 mmHg 87%
    23:00 +20°C° 0.3 mm 2 mps 748 mmHg 91%

    10 June, Wednesday

    Time Temperature Precipitation Wind Pressure Humidity
    00:00 +20°C° 0.1 mm 2 mps 748 mmHg 93%
    01:00 +20°C° 0.1 mm 2 mps 747 mmHg 94%
    02:00 +19°C° 0.1 mm 2 mps 747 mmHg 96%
    03:00 +19°C° 0.4 mm 2 mps 747 mmHg 96%
    04:00 +19°C° 0.4 mm 3 mps 747 mmHg 96%
    05:00 +20°C° 0.4 mm 3 mps 747 mmHg 96%
    06:00 +21°C° 0.2 mm 3 mps 747 mmHg 93%
    07:00 +22°C° 0.2 mm 3 mps 748 mmHg 90%
    08:00 +24°C° 0.2 mm 3 mps 748 mmHg 87%
    09:00 +25°C° 0.7 mm 3 mps 747 mmHg 80%
    10:00 +27°C° 0.7 mm 4 mps 747 mmHg 73%
    11:00 +29°C° 0.7 mm 4 mps 747 mmHg 66%
    12:00 +29°C° 1.4 mm 4 mps 747 mmHg 67%
    13:00 +29°C° 1.4 mm 4 mps 747 mmHg 68%
    14:00 +29°C° 1.4 mm 4 mps 747 mmHg 69%
    15:00 +29°C° 0.5 mm 3 mps 747 mmHg 70%
    16:00 +29°C° 0.5 mm 3 mps 747 mmHg 70%
    17:00 +28°C° 0.5 mm 3 mps 747 mmHg 71%
    18:00 +27°C° 0.1 mm 3 mps 747 mmHg 76%
    19:00 +26°C° 0.1 mm 2 mps 747 mmHg 81%
    20:00 +24°C° 0.1 mm 2 mps 747 mmHg 86%
    21:00 +23°C° 0.2 mm 2 mps 747 mmHg 89%
    22:00 +23°C° 0.2 mm 2 mps 747 mmHg 91%
    23:00 +21°C° 0.2 mm 2 mps 747 mmHg 94%

    11 June, Thursday

    Time Temperature Precipitation Wind Pressure Humidity
    00:00 +21°C° 0 mm 2 mps 747 mmHg 95%
    01:00 +20°C° 0 mm 2 mps 747 mmHg 96%
    02:00 +20°C° 0 mm 2 mps 747 mmHg 96%
    03:00 +20°C° 0 mm 2 mps 747 mmHg 96%
    04:00 +20°C° 0 mm 2 mps 747 mmHg 96%
    05:00 +20°C° 0 mm 2 mps 747 mmHg 96%
    06:00 +21°C° 0 mm 2 mps 747 mmHg 92%
    07:00 +24°C° 0 mm 3 mps 747 mmHg 88%
    08:00 +25°C° 0 mm 3 mps 747 mmHg 84%
    09:00 +27°C° 0.3 mm 3 mps 747 mmHg 76%
    10:00 +28°C° 0.3 mm 4 mps 747 mmHg 68%
    11:00 +30°C° 0.3 mm 4 mps 747 mmHg 60%
    12:00 +32°C° 0.1 mm 4 mps 746 mmHg 56%
    13:00 +32°C° 0.1 mm 5 mps 746 mmHg 52%
    14:00 +33°C° 0.1 mm 5 mps 746 mmHg 48%
    15:00 +33°C° 0 mm 4 mps 746 mmHg 50%
    16:00 +32°C° 0 mm 4 mps 746 mmHg 52%
    17:00 +31°C° 0 mm 3 mps 746 mmHg 54%
    18:00 +29°C° 0 mm 3 mps 746 mmHg 61%
    19:00 +27°C° 0 mm 3 mps 746 mmHg 67%
    20:00 +25°C° 0 mm 2 mps 746 mmHg 74%
    21:00 +24°C° 0 mm 2 mps 746 mmHg 78%
    22:00 +23°C° 0 mm 2 mps 746 mmHg 82%
    23:00 +21°C° 0 mm 2 mps 746 mmHg 86%

    12 June, Friday

    Time Temperature Precipitation Wind Pressure Humidity
    00:00 +20°C° 0 mm 2 mps 746 mmHg 89%
    01:00 +20°C° 0 mm 2 mps 746 mmHg 92%
    02:00 +20°C° 0 mm 2 mps 746 mmHg 95%
    03:00 +20°C° 0 mm 2 mps 746 mmHg 96%
    04:00 +20°C° 0 mm 2 mps 746 mmHg 97%
    05:00 +20°C° 0 mm 2 mps 745 mmHg 97%
    06:00 +23°C° 0 mm 2 mps 746 mmHg 90%
    07:00 +24°C° 0 mm 2 mps 746 mmHg 83%
    08:00 +26°C° 0 mm 3 mps 746 mmHg 76%
    09:00 +27°C° 0 mm 3 mps 746 mmHg 69%
    10:00 +29°C° 0 mm 3 mps 746 mmHg 62%
    11:00 +30°C° 0 mm 4 mps 745 mmHg 55%
    12:00 +32°C° 0 mm 4 mps 745 mmHg 52%
    13:00 +31°C° 0 mm 3 mps 745 mmHg 50%
    14:00 +33°C° 0 mm 3 mps 745 mmHg 47%
    15:00 +33°C° 0 mm 3 mps 745 mmHg 50%
    16:00 +33°C° 0 mm 3 mps 745 mmHg 52%
    17:00 +31°C° 0 mm 3 mps 744 mmHg 54%
    18:00 +29°C° 0 mm 3 mps 745 mmHg 61%
    19:00 +27°C° 0 mm 3 mps 745 mmHg 67%
    20:00 +25°C° 0 mm 3 mps 745 mmHg 74%
    21:00 +24°C° 0 mm 2 mps 745 mmHg 77%
    22:00 +23°C° 0 mm 2 mps 745 mmHg 81%
    23:00 +21°C° 0 mm 2 mps 745 mmHg 84%
    Show more